St. Marys, AK

7:00 AM AKST on December 09, 2019 (GMT -0900)
Saint Mary's

Weather History for PASM - November, 2019

Change the Weather History Date:

Saturday, November 16, 2019

  Actual Average Record
Temperature  
Mean Temperature 6 °F -  
Max Temperature 10 °F 24 °F 39 °F (2000)
Min Temperature 3 °F 17 °F -5 °F (2015)
Degree Days  
Heating Degree Days 58    
Moisture  
Dew Point -2 °F    
Average Humidity 64    
Maximum Humidity 78    
Minimum Humidity 58    
Precipitation  
Precipitation 0.00 in - - ()
Sea Level Pressure  
Sea Level Pressure 29.45 in    
Wind  
Wind Speed 10 mph ()    
Max Wind Speed 16 mph    
Max Gust Speed 25 mph    
Visibility 10.0 miles    
Events      
Averages and records for this station are not official NWS values.
T = Trace of Precipitation, MM = Missing Value Source: Averaged Metar Reports

Daily Weather History Graph

Daily Weather History Graph

Search for Another Location

Airport or City:

Astronomy

Nov. 16, 2019 Rise Set
Actual Time 10:08 AM AKST 5:07 PM AKST
Civil Twilight 9:13 AM AKST 6:01 PM AKST
Nautical Twilight 8:17 AM AKST 6:57 PM AKST
Astronomical Twilight 7:25 AM AKST 7:49 PM AKST
Moon 8:09 PM AKST (11/16) 2:57 PM AKST (11/16)
Length of Visible Light 8h 47m
Length of Day
6h 59m
Waning Gibbous, 81% of the Moon is Illuminated
Nov 16
Waning Gibbous
Nov 19
Last Quarter
Nov 26
New
Dec 3
First Quarter
Dec 11
Full

Hourly Weather History & Observations

Time (AKST) Temp. Windchill Dew Point Humidity Pressure Visibility Wind Dir Wind Speed Gust Speed Precip Events Conditions
12:02 AM 10.9 °F -4.7 °F -0.9 °F 59% 29.40 in 10.0 mi NE 13.8 mph 20.7 mph N/A   Overcast
1:02 AM 10.9 °F -4.1 °F -0.9 °F 59% 29.40 in 10.0 mi NE 12.7 mph 20.7 mph N/A   Overcast
2:02 AM 10.9 °F -5.4 °F -0.9 °F 59% 29.40 in 10.0 mi NE 15.0 mph 21.9 mph N/A   Overcast
3:02 AM 10.9 °F -5.9 °F -0.9 °F 59% 29.40 in 10.0 mi NE 16.1 mph 25.3 mph N/A   Overcast
4:02 AM 10.0 °F -5.9 °F -2.0 °F 58% 29.41 in 10.0 mi NE 13.8 mph 24.2 mph N/A   Partly Cloudy
5:02 AM 10.0 °F -7.1 °F -2.0 °F 58% 29.42 in 10.0 mi NE 16.1 mph 25.3 mph N/A   Overcast
6:02 AM 9.0 °F -7.3 °F -2.9 °F 59% 29.42 in 10.0 mi NE 13.8 mph 20.7 mph N/A   Clear
8:02 AM 7.0 °F -8.3 °F -4.0 °F 61% 29.44 in 10.0 mi ENE 11.5 mph 20.7 mph N/A   Clear
9:02 AM 6.1 °F -11.6 °F -5.1 °F 60% 29.45 in 10.0 mi ENE 15.0 mph - N/A   Clear
11:02 AM 3.9 °F -9.4 °F -5.1 °F 66% 29.47 in 10.0 mi NE 8.1 mph - N/A   Clear
1:02 PM 6.1 °F -7.8 °F -2.9 °F 67% 29.47 in 10.0 mi NNE 9.2 mph - N/A   Clear
2:02 PM 7.0 °F -7.5 °F -2.9 °F 64% 29.47 in 10.0 mi NE 10.4 mph - N/A   Clear
3:02 PM 8.1 °F -4.3 °F -4.0 °F 58% 29.46 in 10.0 mi NE 8.1 mph - N/A   Scattered Clouds
4:02 PM 8.1 °F -9.0 °F -2.9 °F 61% 29.46 in 10.0 mi NE 15.0 mph - N/A   Overcast
5:02 PM 8.1 °F -6.2 °F -2.0 °F 64% 29.47 in 10.0 mi NNE 10.4 mph - N/A   Overcast
6:02 PM 8.1 °F -2.0 °F -2.0 °F 64% 29.47 in 10.0 mi NNE 5.8 mph - 0.00 in   Overcast
6:26 PM 5.0 °F -5.6 °F -4.0 °F 66% 29.44 in 10.0 mi North 5.8 mph - N/A   Partly Cloudy
7:02 PM 3.0 °F -6.4 °F -2.9 °F 76% 29.48 in 10.0 mi NNE 4.6 mph - N/A   Overcast
8:02 PM 5.0 °F -5.6 °F -0.9 °F 76% 29.48 in 10.0 mi NE 5.8 mph - N/A   Overcast
9:02 PM 7.0 °F 0.1 °F -0.0 °F 73% 29.49 in 10.0 mi NE 3.5 mph - N/A   Overcast
10:02 PM 5.0 °F -9.1 °F -2.0 °F 73% 29.49 in 10.0 mi NE 9.2 mph - N/A   Mostly Cloudy
10:47 PM 3.2 °F -4.2 °F -2.2 °F 78% 29.45 in 10.0 mi NNE 3.5 mph - N/A   Mostly Cloudy